Location: ??
(34.9170°N, 135.5016°E)
Time: 17:54:44
(UTC+00:00)

Cosmos 1606 Rocket - Pass Details

Date: 29 October 2020
Orbit: 603 x 631 km, 82.5° (Epoch: 30 November)

Event Time Altitude Azimuth Distance (km) Brightness Sun altitude
Rises 19:42:40 0° 349° (N) 2,929 6.9 -19.8°
Reaches altitude 10° 19:44:55 10° 347° (NNW) 2,018 6.0 -19.4°
Maximum altitude 19:49:21 65° 266° (W) 695 3.5 -18.5°
Drops below altitude 10° 19:53:45 10° 185° (S) 2,000 6.2 -17.6°
Sets 19:55:59 0° 182° (S) 2,900 7.1 -17.1°
